This is the latest recevied weather packets stored in our database for station/object NI4CE-11. If no packets are shown the sender has not sent any weather packets the latest 10 day(s).
| Time | Temp. | Humidity | Pressure | Rain* | Wind** | Luminosity | Snow |
|---|---|---|---|---|---|---|---|
| 1777561816 | 30.56° C | 100% | 1012.9 hPa | 0 mm | - | - | - |
| 1777561516 | 31.67° C | 100% | 1013 hPa | 0 mm | - | - | - |
| 1777561216 | 31.11° C | 100% | 1012.9 hPa | 0 mm | - | - | - |
| 1777561030 | 31.11° C | 100% | 1012.9 hPa | 0 mm | - | - | - |
| 1777560916 | 31.11° C | 100% | 1012.9 hPa | 0 mm | - | - | - |
| 1777560616 | 31.11° C | 100% | 1012.8 hPa | 0 mm | - | - | - |
| 1777560316 | 30.56° C | 100% | 1012.7 hPa | 0 mm | - | - | - |
| 1777560016 | 30° C | 100% | 1012.7 hPa | 0 mm | - | - | - |
| 1777559716 | 29.44° C | 100% | 1012.7 hPa | 0 mm | - | - | - |
| 1777559542 | 29.44° C | 100% | 1012.9 hPa | 0 mm | - | - | - |
| 1777559416 | 29.44° C | 100% | 1012.7 hPa | 0 mm | - | - | - |
| 1777559116 | 29.44° C | 100% | 1012.9 hPa | 0 mm | - | - | - |
| 1777559107 | 28.89° C | 100% | 1012.9 hPa | 0 mm | - | - | - |
| 1777558816 | 28.89° C | 100% | 1012.9 hPa | 0 mm | - | - | - |
| 1777558516 | 28.33° C | 100% | 1012.8 hPa | 0 mm | - | - | - |
| 1777558216 | 27.78° C | 100% | 1012.9 hPa | 0 mm | - | - | - |
| 1777557916 | 27.22° C | 100% | 1012.8 hPa | 0 mm | - | - | - |
| 1777557616 | 27.22° C | 100% | 1012.8 hPa | 0 mm | - | - | - |
| 1777557316 | 26.67° C | 100% | 1013 hPa | 0 mm | - | - | - |
| 1777557016 | 26.11° C | 100% | 1013 hPa | 0 mm | - | - | - |
| 1777556733 | 26.67° C | 100% | 1013.5 hPa | 0 mm | - | - | - |
| 1777556716 | 27.22° C | 100% | 1013.1 hPa | 0 mm | - | - | - |
| 1777556416 | 26.67° C | 100% | 1013.1 hPa | 0 mm | - | - | - |
| 1777556116 | 27.22° C | 100% | 1013.3 hPa | 0 mm | - | - | - |
| 1777555816 | 26.67° C | 100% | 1013.4 hPa | 0 mm | - | - | - |
* Rain latest hour (hover to see other rain measurements)
** Current wind speed in m/s (hover to see current wind gust speed)